Regional Weather Roundup
Issued by NWS Cleveland, OH

Home | Current Version | Previous Version | Graphics & Text | Print | Product List | Glossary On
Versions: 1 2 3 4 5 6 7 8 9 10 11 12 13 14 15 16 17 18 19 20 21 22 23 24 25 26 27 28 29 30 31 32 33 34 35 36 37 38 39 40 41 42 43 44 45 46 47 48 49 50
178
ASUS41 KCLE 291710
RWRCLE
OHIO REGIONAL WEATHER ROUNDUP
NATIONAL WEATHER SERVICE CLEVELAND, OH
100 PM EDT THU SEP 29 2016

NOTE: "FAIR" INDICATES FEW OR NO CLOUDS BELOW 12,000 FEET WITH NO
SIGNIFICANT WEATHER AND/OR OBSTRUCTIONS TO VISIBILITY.

OHZ001>008-015>018-024>027-034-035-043-044-291800-
   NORTHWEST OHIO

CITY           SKY/WX    TMP DP  RH WIND       PRES   REMARKS
DEFIANCE       PTSUNNY   66  54  65 NE10      30.13S
FINDLAY        CLOUDY    64  54  69 NE8       30.12S
TOLEDO EXPRESS CLOUDY    60  59  96 NE6       30.15S
TOLEDO EXEC    CLOUDY    64  58  80 NE8       30.15F
LIMA           PTSUNNY   66  54  65 E8        30.10S
$$

OHZ009>014-019>023-028>033-038-089-291800-
   NORTHEAST OHIO

CITY           SKY/WX    TMP DP  RH WIND       PRES   REMARKS
CLE-HOPKINS    CLOUDY    67  58  72 E12       30.14F
CLE-LAKEFRONT  CLOUDY    65  58  78 E12       30.12S
CUY CO. ARPT   CLOUDY    64  61  88 E8        30.15S
LORAIN-ELYRIA  LGT RAIN  60  56  86 NW8       30.13F
ASHTABULA      LGT RAIN  61  59  93 E10       30.18S FOG
AKRON-CANTON   CLOUDY    62  57  83 E10       30.13R
WOOSTER        CLOUDY    62  60  93 NE7       30.12R
MANSFIELD      PTSUNNY   65  57  75 N7        30.11F
YOUNGSTOWN     LGT RAIN  61  57  87 E12       30.14S
$$

OHZ042-051>053-060>062-070>072-077>081-291800-
  SOUTHWEST OHIO

CITY           SKY/WX    TMP DP  RH WIND       PRES   REMARKS
CINC-COVINGTON CLOUDY    59  52  77 NE6       30.08R
CINC-LUNKEN    PTSUNNY   61  54  77 NE6       30.09S
HAMILTON       PTSUNNY   63  53  70 VRB6      30.09S
DAYTON         PTSUNNY   62  52  69 NE9       30.09S
WRIGHT-PAT AFB PTSUNNY   64  54  71 NE8       30.07F
DAYTON GENERAL PTSUNNY   63  53  70 VRB6      30.08S
WILMINGTON     CLOUDY    58  54  86 E5        30.09R
$$

OHZ036-037-039>041-045>050-054>059-063>069-073>076-082>088-291800-
  CENTRAL AND SOUTHEAST OHIO

CITY           SKY/WX    TMP DP  RH WIND       PRES   REMARKS
COLUMBUS       PTSUNNY   67  56  67 E5        30.06F
OSU AIRPORT    PTSUNNY   66  56  70 VRB5      30.07F
BOLTON FIELD   CLOUDY    64  55  72 N3        30.08S
RICKENBACK AFB MOSUNNY   65  55  71 N5        30.07R
NEWARK         MOSUNNY   68  55  63 NE6       30.07R
MARION         MOSUNNY   68  55  63 NE9       30.10F
LANCASTER      PTSUNNY   67  55  65 VRB5      30.06F
ZANESVILLE     MOSUNNY   63  58  83 N5        30.07R
NEW PHILLY     HVY RAIN  61  60  97 NE7       30.09S FOG
$$




USA.gov is the U.S. government's official web portal to all federal, state and local government web resources and services.